Preview of NWS' New Version of Forecast
This preview is not operational and should not be used for support decisions.

Regional Weather Roundup (RWR)

Issued by National Weather Service (NWS)

                            
000
ASUS43 KLSX 250657
RWRMO 

WEATHER SUMMARY FOR MISSOURI
NATIONAL WEATHER SERVICE SPRINGFIELD MO
200 AM CDT SUN AUG 25 2019

NOTE: "FAIR" INDICATES FEW OR NO CLOUDS BELOW 12,000 FEET WITH NO
       SIGNIFICANT WEATHER AND/OR OBSTRUCTIONS TO VISIBILITY.
       CURRENT SKY AND/OR WEATHER CONDITIONS ARE NOT AVAILABLE FOR
       CHILLICOTHE AND FARMINGTON.

MOZ001>031-035>038-043-044-053-054-250800-
...NORTHERN AND WESTERN MISSOURI...
  
CITY           SKY/WX    TMP DP  RH WIND       PRES   REMARKS
KANSAS CTY INT CLOUDY    69  61  75 SE9       29.99F                  
LEE'S SUMMIT   CLOUDY    70  60  70 SE9       29.99F                  
ST JOSEPH      CLOUDY    69  60  73 SE7       30.00F                  
CHILLICOTHE      N/A     68  59  73 E6        30.04F                  
     
$$
MOZ066>068-077>081-088>096-101>105-250800-
...SOUTHWEST MISSOURI...
  
CITY           SKY/WX    TMP DP  RH WIND       PRES   REMARKS
SPRINGFIELD    CLOUDY    68  63  84 SE15      30.00F                  
JOPLIN         CLOUDY    70  67  90 SE8G20    29.97F                  
               
$$
MOZ032>034-039>042-045>050-055>058-069>072-250800-
...CENTRAL MISSOURI...  
  
CITY           SKY/WX    TMP DP  RH WIND       PRES   REMARKS
COLUMBIA       NOT AVBL                                               
JEFFERSON CITY CLOUDY    66  61  84 E7        30.03F                  
ROLLA          CLOUDY    66  60  81 E7        30.04F                  
SEDALIA        CLOUDY    65  62  90 E9        30.02F                  
WARRENSBURG    CLOUDY    68  59  73 E7        30.01F                  
               
$$
MOZ051-052-059>065-250800-
...EAST CENTRAL MISSOURI...
  
CITY           SKY/WX    TMP DP  RH WIND       PRES   REMARKS
ST LOUIS INTL  CLOUDY    69  58  67 E10       30.06F                  
                   
$$
MOZ072>076-082>087-097>100-106>115-250800-
...SOUTH CENTRAL AND SOUTHEAST MISSOURI...
  
CITY           SKY/WX    TMP DP  RH WIND       PRES   REMARKS
CAPE GIRARDEAU MOCLDY    69  62  78 NE6       30.01F                  
POPLAR BLUFF   CLOUDY    69  63  81 NE5       30.00F                  
WEST PLAINS    CLOUDY    65  63  93 CALM      30.05F                  
                                       
$$